DW6416 Weather Reports


Display with metric or nautical units.
time (UTC)temp
F
wind
direction
speed
MPH
gust
MPH
rain 1hr
in
rain 24hr
in
rain mn
in
humidity
%
barometer
mb
20171120225624 39 182 0.0 1.0 0.00 0.00 0.00 70 1017.0
20171120225121 40 182 0.0 1.0 0.00 0.00 0.00 69 1016.9
20171120224635 40 182 0.0 3.0 0.00 0.00 0.00 68 1016.9
20171120224130 40 178 0.0 3.0 0.00 0.00 0.00 68 1016.9
20171120223626 41 181 0.0 1.0 0.00 0.00 0.00 67 1016.9
20171120223120 41 174 0.0 2.0 0.00 0.00 0.00 65 1016.9
20171120222635 41 195 0.0 2.0 0.00 0.00 0.00 65 1016.9
20171120222132 42 189 0.0 3.0 0.00 0.00 0.00 65 1016.8
20171120221630 42 188 0.0 3.0 0.00 0.00 0.00 64 1016.8
20171120221128 42 198 0.0 5.0 0.00 0.00 0.00 64 1016.8
20171120220624 42 229 1.0 8.0 0.00 0.00 0.00 63 1016.8
20171120220130 42 200 0.0 7.0 0.00 0.00 0.00 63 1016.8
20171120215625 43 211 0.0 6.0 0.00 0.00 0.00 64 1016.9
20171120215120 43 215 1.0 6.0 0.00 0.00 0.00 63 1016.9
20171120214618 43 214 1.0 6.0 0.00 0.00 0.00 62 1016.9
20171120214132 43 189 0.0 10.0 0.00 0.00 0.00 62 1017.0
20171120213627 43 231 3.0 10.0 0.00 0.00 0.00 62 1017.0
20171120213122 43 250 3.0 9.0 0.00 0.00 0.00 62 1017.0
20171120212622 43 183 0.0 7.0 0.00 0.00 0.00 63 1017.0
20171120212118 43 218 1.0 12.0 0.00 0.00 0.00 63 1017.1
20171120211634 43 202 3.0 12.0 0.00 0.00 0.00 62 1017.1
20171120211129 43 199 2.0 7.0 0.00 0.00 0.00 64 1017.1
20171120210626 43 192 1.0 7.0 0.00 0.00 0.00 63 1017.1
20171120210134 43 196 1.0 7.0 0.00 0.00 0.00 63 1017.2
20171120205630 43 168 0.0 7.0 0.00 0.00 0.00 64 1017.2
20171120205127 43 211 2.0 9.0 0.00 0.00 0.00 63 1017.2
20171120204622 43 260 2.0 9.0 0.00 0.00 0.00 63 1017.2
20171120204136 43 231 2.0 9.0 0.00 0.00 0.00 63 1017.2
20171120203630 43 229 2.0 9.0 0.00 0.00 0.00 62 1017.1
20171120203124 43 206 1.0 10.0 0.00 0.00 0.00 64 1017.2
20171120202619 43 230 2.0 10.0 0.00 0.00 0.00 63 1017.2
20171120202134 43 197 3.0 14.0 0.00 0.00 0.00 63 1017.2
20171120201632 43 161 2.0 8.0 0.00 0.00 0.00 63 1017.2
20171120201128 43 233 2.0 11.0 0.00 0.00 0.00 63 1017.2
20171120200624 43 170 2.0 11.0 0.00 0.00 0.00 63 1017.3
20171120200114 43 201 2.0 8.0 0.00 0.00 0.00 64 1017.3
20171120195632 43 199 2.0 8.0 0.00 0.00 0.00 63 1017.4
20171120195128 43 166 1.0 7.0 0.00 0.00 0.00 64 1017.4
20171120194624 43 208 2.0 12.0 0.00 0.00 0.00 62 1017.3
20171120194119 43 207 5.0 12.0 0.00 0.00 0.00 62 1017.5
20171120193634 43 214 3.0 16.0 0.00 0.00 0.00 63 1017.6
20171120193129 43 268 3.0 16.0 0.00 0.00 0.00 63 1017.7
20171120192623 43 208 2.0 8.0 0.00 0.00 0.00 64 1017.8
20171120192121 43 229 2.0 8.0 0.00 0.00 0.00 62 1017.9
20171120191615 43 190 2.0 9.0 0.00 0.00 0.00 64 1017.8
20171120191134 43 183 2.0 11.0 0.00 0.00 0.00 63 1018.0
20171120190630 43 221 4.0 11.0 0.00 0.00 0.00 63 1018.1
20171120190118 43 212 1.0 8.0 0.00 0.00 0.00 63 1018.1
20171120185634 43 173 1.0 7.0 0.00 0.00 0.00 62 1018.2
20171120185130 43 220 1.0 8.0 0.00 0.00 0.00 63 1018.2
20171120184628 43 227 2.0 9.0 0.00 0.00 0.00 64 1018.3
20171120184123 43 233 3.0 9.0 0.00 0.00 0.00 62 1018.4
20171120183624 43 231 1.0 8.0 0.00 0.00 0.00 61 1018.4
20171120183121 43 166 1.0 7.0 0.00 0.00 0.00 63 1018.3
20171120182618 43 226 2.0 7.0 0.00 0.00 0.00 62 1018.4
20171120182115 43 229 1.0 7.0 0.00 0.00 0.00 63 1018.4
20171120181633 43 182 1.0 6.0 0.00 0.00 0.00 64 1018.5
20171120181128 43 189 1.0 8.0 0.00 0.00 0.00 63 1018.6
20171120180626 43 168 1.0 6.0 0.00 0.00 0.00 64 1018.7
20171120180134 43 196 2.0 5.0 0.00 0.00 0.00 65 1018.8
20171120175630 43 212 1.0 7.0 0.00 0.00 0.00 67 1018.8
20171120175126 42 213 0.0 5.0 0.00 0.00 0.00 67 1018.9
20171120174621 42 218 1.0 7.0 0.00 0.00 0.00 67 1018.9
20171120174136 42 180 1.0 7.0 0.00 0.00 0.00 65 1019.0
20171120173631 41 219 1.0 4.0 0.00 0.00 0.00 68 1019.0
20171120173126 41 181 0.0 6.0 0.00 0.00 0.00 67 1019.1
20171120172621 40 191 1.0 7.0 0.00 0.00 0.00 69 1019.2
20171120172117 40 195 1.0 7.0 0.00 0.00 0.00 69 1019.3
20171120171617 40 212 1.0 6.0 0.00 0.00 0.00 68 1019.3
20171120171115 40 183 1.0 5.0 0.00 0.00 0.00 70 1019.4
20171120170635 40 181 0.0 4.0 0.00 0.00 0.00 69 1019.5
20171120170121 40 179 1.0 6.0 0.00 0.00 0.00 69 1019.6
20171120165636 40 214 0.0 7.0 0.00 0.00 0.00 70 1019.7
20171120165130 39 189 2.0 7.0 0.00 0.00 0.00 68 1019.8
20171120164627 39 190 1.0 10.0 0.00 0.00 0.00 70 1019.9
20171120164122 39 198 3.0 10.0 0.00 0.00 0.00 69 1019.9
20171120163620 38 183 2.0 7.0 0.00 0.00 0.00 70 1020.0
20171120163132 38 237 1.0 6.0 0.00 0.00 0.00 72 1020.1
20171120162628 38 249 1.0 6.0 0.00 0.00 0.00 71 1020.2
20171120162123 38 190 1.0 5.0 0.00 0.00 0.00 70 1020.3
20171120161619 37 180 1.0 5.0 0.00 0.00 0.00 71 1020.4
20171120161119 37 191 1.0 7.0 0.00 0.00 0.00 72 1020.4
20171120160616 37 190 1.0 7.0 0.00 0.00 0.00 72 1020.3
20171120160125 37 186 0.0 8.0 0.00 0.00 0.00 73 1020.4
20171120155621 37 179 2.0 8.0 0.00 0.00 0.00 72 1020.5
20171120155122 37 208 1.0 6.0 0.00 0.00 0.00 73 1020.7
20171120154617 36 179 1.0 8.0 0.00 0.00 0.00 73 1020.7
20171120153629 36 226 3.0 7.0 0.00 0.00 0.00 74 1021.0
20171120153126 36 208 1.0 7.0 0.00 0.00 0.00 74 1021.2
20171120152621 36 194 2.0 6.0 0.00 0.00 0.00 76 1021.2
20171120152119 35 204 0.0 3.0 0.00 0.00 0.00 78 1021.3
20171120151635 35 191 0.0 3.0 0.00 0.00 0.00 77 1021.3
20171120151131 35 184 0.0 3.0 0.00 0.00 0.00 78 1021.4
20171120150628 35 198 0.0 4.0 0.00 0.00 0.00 78 1021.3
20171120150136 34 194 0.0 4.0 0.00 0.00 0.00 78 1021.4
20171120145631 34 193 0.0 4.0 0.00 0.00 0.00 80 1021.4
20171120145127 34 197 1.0 4.0 0.00 0.00 0.00 79 1021.5
20171120144624 34 200 0.0 2.0 0.00 0.00 0.00 80 1021.5
20171120144119 33 189 0.0 3.0 0.00 0.00 0.00 79 1021.6
20171120143635 33 207 1.0 3.0 0.00 0.00 0.00 81 1021.6
20171120143116 33 170 0.0 2.0 0.00 0.00 0.00 81 1021.6
20171120142635 33 209 0.0 3.0 0.00 0.00 0.00 82 1021.7
20171120142130 32 190 0.0 3.0 0.00 0.00 0.00 83 1021.8
20171120141626 32 208 0.0 5.0 0.00 0.00 0.00 83 1021.8
20171120141122 32 217 0.0 5.0 0.00 0.00 0.00 84 1021.8
20171120140618 32 197 0.0 5.0 0.00 0.00 0.00 84 1021.9
20171120140126 31 204 2.0 5.0 0.00 0.00 0.00 84 1021.8
20171120135623 31 211 1.0 5.0 0.00 0.00 0.00 86 1021.8
20171120135121 30 214 1.0 5.0 0.00 0.00 0.00 86 1021.9
20171120134619 30 207 0.0 3.0 0.00 0.00 0.00 87 1021.9
20171120134136 30 189 0.0 3.0 0.00 0.00 0.00 87 1022.0
20171120133631 30 185 0.0 3.0 0.00 0.00 0.00 88 1022.0
20171120133129 29 231 1.0 3.0 0.00 0.00 0.00 88 1021.9
20171120132624 29 193 0.0 2.0 0.00 0.00 0.00 89 1021.9
20171120132121 29 188 0.0 1.0 0.00 0.00 0.00 89 1021.7
20171120131617 28 195 0.0 1.0 0.00 0.00 0.00 90 1021.6
20171120131133 28 196 0.0 1.0 0.00 0.00 0.00 91 1021.6
20171120130632 28 218 0.0 1.0 0.00 0.00 0.00 91 1021.6
20171120130121 27 185 0.0 1.0 0.00 0.00 0.00 92 1021.7
20171120125620 27 219 0.0 1.0 0.00 0.00 0.00 92 1021.6
20171120125137 26 193 0.0 0.0 0.00 0.00 0.00 92 1021.5
20171120124632 26 198 0.0 3.0 0.00 0.00 0.00 92 1021.5
20171120124130 26 195 0.0 3.0 0.00 0.00 0.00 92 1021.4
20171120123627 25 217 0.0 1.0 0.00 0.00 0.00 92 1021.4
20171120123123 25 216 0.0 1.0 0.00 0.00 0.00 92 1021.4
20171120122635 25 206 0.0 0.0 0.00 0.00 0.00 92 1021.5
20171120122132 25 206 0.0 6.0 0.00 0.00 0.00 92 1021.5
20171120121626 25 204 0.0 6.0 0.00 0.00 0.00 92 1021.5
20171120121123 25 179 0.0 0.0 0.00 0.00 0.00 92 1021.4
20171120120624 25 200 0.0 0.0 0.00 0.00 0.00 92 1021.4
20171120120129 25 198 0.0 0.0 0.00 0.00 0.00 92 1021.3
20171120115626 25 201 0.0 0.0 0.00 0.00 0.00 92 1021.3
20171120115124 25 200 0.0 0.0 0.00 0.00 0.00 92 1021.3
20171120114625 25 200 0.0 0.0 0.00 0.00 0.00 92 1021.2
20171120114121 25 200 0.0 0.0 0.00 0.00 0.00 92 1021.2
20171120113618 25 200 0.0 0.0 0.00 0.00 0.00 92 1021.2
20171120113134 25 203 0.0 0.0 0.00 0.00 0.00 93 1021.1
20171120112631 25 203 0.0 0.0 0.00 0.00 0.00 93 1021.0
20171120112130 25 206 0.0 1.0 0.00 0.00 0.00 93 1020.9
20171120111630 25 207 0.0 1.0 0.00 0.00 0.00 93 1020.8
20171120111126 25 198 0.0 1.0 0.00 0.00 0.00 93 1020.9
20171120110621 25 201 0.0 1.0 0.00 0.00 0.00 93 1020.8
20171120110129 25 216 0.0 0.0 0.00 0.00 0.00 93 1020.9
20171120105624 25 225 0.0 0.0 0.00 0.00 0.00 93 1021.0
20171120105121 24 234 0.0 0.0 0.00 0.00 0.00 93 1021.1
20171120104620 24 237 0.0 0.0 0.00 0.00 0.00 93 1021.1
20171120104136 24 240 0.0 0.0 0.00 0.00 0.00 93 1021.0
20171120103633 24 240 0.0 0.0 0.00 0.00 0.00 92 1021.0
20171120103130 24 241 0.0 1.0 0.00 0.00 0.00 92 1021.0
20171120102631 24 241 0.0 1.0 0.00 0.00 0.00 92 1021.0
20171120102128 24 241 0.0 0.0 0.00 0.00 0.00 92 1020.9
20171120101622 25 244 0.0 0.0 0.00 0.00 0.00 92 1020.8
20171120101137 25 244 0.0 0.0 0.00 0.00 0.00 92 1020.8
20171120100634 25 244 0.0 0.0 0.00 0.00 0.00 92 1020.9
20171120100121 25 244 0.0 0.0 0.00 0.00 0.00 92 1020.7
20171120095615 25 244 0.0 0.0 0.00 0.00 0.00 92 1020.7
20171120095135 25 245 0.0 0.0 0.00 0.00 0.00 92 1020.6
20171120094630 25 245 0.0 0.0 0.00 0.00 0.00 92 1020.4
20171120094126 25 245 0.0 0.0 0.00 0.00 0.00 92 1020.4
20171120093621 25 245 0.0 0.0 0.00 0.00 0.00 92 1020.3
20171120093118 25 245 0.0 0.0 0.00 0.00 0.00 92 1020.2
20171120092633 25 245 0.0 0.0 0.00 0.00 0.00 92 1020.2
20171120092130 25 245 0.0 0.0 0.00 0.00 0.00 92 1020.2
20171120091627 25 245 0.0 0.0 0.00 0.00 0.00 91 1020.2
20171120091122 25 247 0.0 0.0 0.00 0.00 0.00 91 1020.2
20171120090622 25 247 0.0 0.0 0.00 0.00 0.00 91 1020.2
20171120090132 25 247 0.0 0.0 0.00 0.00 0.00 91 1020.2
20171120085628 25 247 0.0 0.0 0.00 0.00 0.00 91 1020.1
20171120085122 25 247 0.0 1.0 0.00 0.00 0.00 91 1020.2
20171120084620 25 247 0.0 1.0 0.00 0.00 0.00 91 1020.1
20171120084138 25 251 0.0 0.0 0.00 0.00 0.00 91 1020.1
20171120083633 25 252 0.0 0.0 0.00 0.00 0.00 91 1020.0
20171120083128 25 252 0.0 2.0 0.00 0.00 0.00 91 1020.1
20171120082624 25 253 0.0 2.0 0.00 0.00 0.00 91 1020.3
20171120082121 26 254 0.0 1.0 0.00 0.00 0.00 91 1020.3
20171120081638 26 254 0.0 3.0 0.00 0.00 0.00 91 1020.3
20171120081132 26 254 1.0 4.0 0.00 0.00 0.00 91 1020.3
20171120080630 26 246 0.0 4.0 0.00 0.00 0.00 91 1020.2
20171120080117 26 249 0.0 5.0 0.00 0.00 0.00 90 1020.1
20171120075633 26 248 2.0 5.0 0.00 0.00 0.00 91 1020.3
20171120075128 26 248 1.0 5.0 0.00 0.00 0.00 90 1020.4
20171120074625 26 247 1.0 5.0 0.00 0.00 0.00 90 1020.3
20171120074125 26 249 1.0 5.0 0.00 0.00 0.00 90 1020.2
20171120073622 26 251 0.0 5.0 0.00 0.00 0.00 90 1020.3
20171120073137 26 251 1.0 6.0 0.00 0.00 0.00 90 1020.4
20171120072632 26 251 3.0 7.0 0.00 0.00 0.00 90 1020.3
20171120072129 27 253 4.0 7.0 0.00 0.00 0.00 90 1020.4
20171120071625 27 244 2.0 7.0 0.00 0.00 0.00 90 1020.3
20171120071121 27 255 4.0 7.0 0.00 0.00 0.00 89 1020.1
20171120070639 27 254 3.0 7.0 0.00 0.00 0.00 89 1020.0
20171120070123 27 254 3.0 8.0 0.00 0.00 0.00 90 1019.9
20171120065620 27 255 5.0 9.0 0.00 0.00 0.00 89 1019.9
20171120065137 27 254 5.0 10.0 0.00 0.00 0.00 89 1019.9
20171120064635 27 253 6.0 10.0 0.00 0.00 0.00 89 1019.8
20171120064133 27 254 5.0 8.0 0.00 0.00 0.00 89 1019.7
20171120063627 27 254 4.0 8.0 0.00 0.00 0.00 89 1019.7
20171120063123 27 256 5.0 8.0 0.00 0.00 0.00 89 1019.7
20171120062618 27 257 5.0 8.0 0.00 0.00 0.00 89 1019.8
20171120062118 28 252 4.0 12.0 0.00 0.00 0.00 88 1019.8
20171120061632 28 252 7.0 12.0 0.00 0.00 0.00 88 1019.7
20171120061128 28 258 5.0 11.0 0.00 0.00 0.00 88 1019.6
20171120060622 28 259 6.0 11.0 0.00 0.00 0.00 88 1019.7
20171120060130 28 269 6.0 11.0 0.00 0.00 0.00 88 1019.7
20171120055626 28 256 8.0 11.0 0.00 0.00 0.00 88 1019.7
20171120055122 28 256 6.0 11.0 0.00 0.00 0.00 88 1019.6
20171120054619 28 262 8.0 11.0 0.00 0.00 0.00 88 1019.6
20171120054119 28 260 8.0 12.0 0.00 0.00 0.00 87 1019.6
20171120053635 28 256 8.0 12.0 0.00 0.00 0.00 87 1019.5
20171120053131 28 256 8.0 12.0 0.00 0.00 0.00 87 1019.5
20171120052627 29 252 7.0 13.0 0.00 0.00 0.00 87 1019.4
20171120052122 29 260 9.0 13.0 0.00 0.00 0.00 86 1019.5
20171120051620 29 258 7.0 11.0 0.00 0.00 0.00 86 1019.5
20171120051138 29 254 7.0 10.0 0.00 0.00 0.00 86 1019.5
20171120050629 29 258 7.0 11.0 0.00 0.00 0.00 85 1019.4
20171120050138 29 259 7.0 13.0 0.00 0.00 0.00 85 1019.3
20171120045632 30 262 8.0 16.0 0.00 0.00 0.00 85 1019.2
20171120045133 30 256 10.0 16.0 0.00 0.00 0.00 84 1019.2
20171120044626 30 271 10.0 16.0 0.00 0.00 0.00 84 1019.2
20171120044137 30 256 10.0 14.0 0.00 0.00 0.00 84 1019.2
20171120043633 30 254 7.0 14.0 0.00 0.00 0.00 84 1019.2
20171120043130 30 258 10.0 17.0 0.00 0.00 0.00 83 1019.1
20171120042628 30 265 12.0 17.0 0.00 0.00 0.00 83 1019.1
20171120042124 30 261 9.0 14.0 0.00 0.00 0.00 83 1019.2
20171120041620 30 262 9.0 15.0 0.00 0.00 0.00 82 1019.2
20171120041117 30 273 11.0 15.0 0.00 0.00 0.00 82 1019.2
20171120040638 30 280 10.0 13.0 0.00 0.00 0.00 82 1019.0
20171120040124 30 266 9.0 14.0 0.00 0.00 0.00 82 1018.9
20171120035618 30 268 8.0 14.0 0.00 0.00 0.00 82 1019.1
20171120035136 30 276 9.0 17.0 0.00 0.00 0.00 81 1019.2
20171120034630 30 256 12.0 17.0 0.00 0.00 0.00 82 1019.1
20171120034126 30 253 9.0 15.0 0.00 0.00 0.00 82 1019.2
20171120033638 30 268 10.0 17.0 0.00 0.00 0.00 82 1019.2
20171120033132 30 270 11.0 17.0 0.00 0.00 0.00 82 1019.1
20171120032634 31 267 10.0 13.0 0.00 0.00 0.00 82 1019.0
20171120032130 31 271 10.0 17.0 0.00 0.00 0.00 82 1018.9
20171120031626 31 281 13.0 17.0 0.00 0.00 0.00 82 1018.8
20171120030619 31 268 11.0 17.0 0.00 0.00 0.00 83 1018.6
20171120030131 31 256 13.0 17.0 0.00 0.00 0.00 83 1018.4
20171120025623 31 260 9.0 15.0 0.00 0.00 0.00 82 1018.3
20171120025121 31 258 8.0 18.0 0.00 0.00 0.00 82 1018.4
20171120024633 31 272 11.0 18.0 0.00 0.00 0.00 82 1018.2
20171120024129 31 255 11.0 15.0 0.00 0.00 0.00 82 1018.3
20171120023624 31 257 9.0 15.0 0.00 0.00 0.00 82 1018.2
20171120023121 31 277 11.0 15.0 0.00 0.00 0.00 83 1018.1
20171120022638 31 266 9.0 14.0 0.00 0.00 0.00 83 1018.0
20171120022134 31 264 7.0 17.0 0.00 0.00 0.00 83 1017.9
20171120021626 31 283 11.0 14.0 0.00 0.00 0.00 83 1017.9
20171120021122 31 258 8.0 14.0 0.00 0.00 0.00 83 1017.9
20171120020623 31 267 9.0 15.0 0.00 0.00 0.00 83 1017.7
20171120020131 31 266 9.0 15.0 0.00 0.00 0.00 83 1017.7
20171120015626 31 254 11.0 15.0 0.00 0.00 0.00 83 1017.7
20171120015123 31 258 9.0 17.0 0.00 0.00 0.00 83 1017.6
20171120014620 31 267 12.0 17.0 0.00 0.00 0.00 84 1017.5
20171120014123 31 269 11.0 18.0 0.00 0.00 0.00 84 1017.4
20171120013636 31 274 12.0 18.0 0.00 0.00 0.00 84 1017.4
20171120013132 31 254 11.0 18.0 0.00 0.00 0.00 84 1017.4
20171120012628 31 250 11.0 16.0 0.00 0.00 0.00 84 1017.4
20171120012138 31 272 13.0 22.0 0.00 0.00 0.00 83 1017.4
20171120011635 31 262 14.0 22.0 0.00 0.00 0.00 84 1017.4
20171120011124 31 255 11.0 18.0 0.00 0.00 0.00 84 1017.4
20171120010642 31 267 10.0 18.0 0.00 0.00 0.00 84 1017.4
20171120010130 31 260 10.0 20.0 0.00 0.00 0.00 83 1017.4
20171120005623 31 260 14.0 20.0 0.00 0.00 0.00 83 1017.2
20171120005137 32 281 12.0 19.0 0.00 0.00 0.00 84 1017.2
20171120004631 32 264 14.0 19.0 0.00 0.00 0.00 83 1017.2
20171120004127 32 256 10.0 15.0 0.00 0.00 0.00 83 1017.2
20171120003622 32 247 10.0 18.0 0.00 0.00 0.00 83 1017.2
20171120003118 32 276 13.0 17.0 0.00 0.00 0.00 84 1017.1
20171120002636 32 270 12.0 16.0 0.00 0.00 0.00 84 1017.1
20171120002132 32 264 10.0 16.0 0.00 0.00 0.00 83 1017.0
20171120001629 32 279 10.0 20.0 0.00 0.00 0.00 83 1016.9
20171120001124 32 268 11.0 20.0 0.00 0.00 0.00 83 1016.9
20171120000636 32 260 11.0 17.0 0.00 0.00 0.00 83 1016.9
20171120000123 32 277 13.0 21.0 0.00 0.00 0.00 83 1016.8
20171119235624 32 269 12.0 18.0 0.00 0.00 0.00 83 1016.7
20171119235122 32 262 11.0 19.0 0.00 0.00 0.00 83 1016.6
20171119234620 32 267 12.0 22.0 0.00 0.00 0.00 82 1016.6
20171119234135 32 256 11.0 22.0 0.00 0.00 0.00 82 1016.5
20171119233631 32 276 10.0 15.0 0.00 0.00 0.00 82 1016.4
20171119233126 33 277 9.0 13.0 0.00 0.00 0.00 82 1016.4
20171119232620 33 258 7.0 16.0 0.00 0.00 0.00 83 1016.2
20171119232136 33 267 10.0 16.0 0.00 0.00 0.00 82 1016.2
20171119231632 33 273 9.0 15.0 0.00 0.00 0.00 82 1016.1
20171119231126 33 281 10.0 15.0 0.00 0.00 0.00 82 1016.0
20171119230622 33 274 11.0 17.0 0.00 0.00 0.00 82 1016.0
20171119230130 33 264 12.0 17.0 0.00 0.00 0.00 82 1015.9